Wind_Speed
23 23 23 23 23 24 27 31 35 38 40 40 39 37 36 37 39 41 42 42 41 41 42 45 48 50 51 52 52 51 50 48 46 44 43 44 45 46 48 48 48 48 48 48 48 48 49 49 50 50 49 49 49 48 47 47 46 46 45 44 44 43 42 42 42 41 40 39 38 37 36 36 35 35 35 35 35 36 36 35 34 33 32 31 31 31
22 21 21 22 22 22 23 25 27 31 34 37 39 39 38 37 38 40 42 41 38 36 36 38 42 47 50 52 53 53 52 50 47 44 43 43 45 46 48 49 49 49 49 48 48 48 49 49 50 50 50 50 49 49 48 48 47 47 46 45 45 44 43 43 42 42 41 40 38 38 37 37 36 36 36 36 36 37 37 37 35 33 31 30 30 31
24 23 23 24 24 24 24 24 24 26 28 31 35 39 41 41 42 43 45 43 39 35 34 34 37 41 46 50 54 55 55 53 49 46 44 44 45 46 48 49 50 50 50 49 48 48 48 49 50 50 50 50 50 49 49 48 48 47 47 46 45 45 44 43 43 43 42 40 39 39 38 38 37 37 37 37 37 38 38 38 36 34 31 31 31 32
28 26 25 25 26 26 26 25 25 25 26 28 31 35 39 42 45 47 49 49 45 40 36 34 35 37 40 45 49 53 54 54 52 50 47 45 45 46 48 49 49 50 50 49 48 48 48 49 49 50 50 50 49 49 49 49 48 48 48 47 46 45 44 44 44 43 42 41 40 39 39 39 38 38 37 37 38 39 40 39 38 36 33 33 34 34
31 29 28 28 28 28 27 27 28 28 29 29 30 32 35 38 41 44 48 50 49 46 42 39 38 38 38 40 42 45 48 50 52 52 51 49 48 47 47 48 49 49 49 49 48 48 48 49 49 49 49 49 49 49 49 49 49 48 48 47 46 45 44 44 43 42 42 41 40 40 39 39 39 38 38 38 38 40 41 41 40 38 37 37 38 37
30 31 31 31 31 31 30 30 31 32 32 32 32 33 34 35 36 37 40 42 44 45 45 45 44 43 41 39 38 39 41 44 47 50 51 52 50 49 47 47 48 48 48 48 48 48 48 49 49 49 49 49 49 49 49 49 49 49 48 47 46 45 44 43 43 42 41 41 40 40 39 39 39 38 38 38 38 40 41 42 41 40 40 40 40 40
29 31 32 33 34 34 33 33 34 34 35 36 35 35 35 34 34 34 35 36 37 38 40 44 47 48 46 43 40 38 37 39 43 46 49 51 52 51 49 48 48 48 48 48 47 47 48 49 49 49 49 49 49 49 49 49 49 49 48 47 46 45 44 43 42 41 41 40 40 40 40 40 40 39 38 38 38 39 41 41 41 41 41 41 42 41
30 31 33 34 35 36 36 36 36 36 37 37 38 37 37 36 35 34 35 35 35 35 37 40 45 49 51 49 45 41 38 38 40 43 47 50 52 52 52 51 50 50 50 49 49 48 48 48 48 49 49 49 49 49 49 50 49 49 48 47 45 44 43 42 42 41 40 40 39 40 41 41 41 40 39 39 40 40 41 40 40 40 41 43 43 42
33 33 34 35 36 36 37 37 37 36 37 37 38 38 38 37 36 35 34 35 35 36 36 38 41 45 50 52 50 47 42 39 39 42 45 48 50 52 52 53 52 52 52 52 51 50 49 49 49 49 49 50 50 50 51 51 50 49 48 47 46 44 44 43 42 41 41 40 40 41 43 43 42 41 41 41 42 42 41 40 40 41 43 44 44 42
36 36 35 36 36 37 37 37 37 37 37 37 38 38 38 37 36 35 34 34 35 36 36 37 38 41 45 49 52 52 49 44 41 42 44 46 48 50 52 53 53 54 54 54 54 53 52 51 51 51 51 51 51 51 51 52 51 50 49 48 46 45 44 43 43 42 41 41 41 43 44 44 43 43 43 43 44 44 43 42 43 44 45 45 44 41
39 38 38 37 37 38 38 38 38 37 37 37 37 37 38 37 37 36 35 35 35 35 36 37 37 38 40 44 49 53 53 50 46 43 43 44 46 49 51 53 54 54 55 55 55 55 54 54 53 53 52 51 51 51 52 52 52 51 51 49 47 44 43 43 43 43 42 42 43 44 44 44 44 44 44 44 44 44 44 45 46 48 48 47 45 42
39 39 39 39 39 39 39 39 38 38 37 37 37 37 36 36 35 35 35 35 35 35 36 36 37 37 37 39 43 48 51 52 50 46 43 42 43 45 48 51 53 54 55 56 56 56 56 55 55 54 53 52 51 51 51 51 52 51 50 48 46 44 43 44 44 44 44 44 44 45 44 44 44 44 44 44 44 45 46 48 49 50 50 48 46 43
38 39 39 40 40 40 40 40 39 38 38 37 37 36 35 35 34 34 34 35 35 35 35 36 36 37 37 37 39 42 46 49 51 50 47 43 41 41 44 47 51 53 54 55 55 55 55 56 55 54 52 52 52 51 50 50 50 50 49 47 45 45 45 46 46 46 46 46 45 44 44 44 44 44 43 42 43 43 45 47 49 50 50 50 48 45
38 38 39 39 40 41 41 41 40 40 39 38 38 37 36 35 34 34 34 34 35 35 35 35 36 37 38 38 39 40 42 45 48 49 49 47 44 41 40 42 45 49 51 53 54 54 54 55 55 54 53 53 53 52 51 50 50 49 48 48 48 48 48 48 48 49 48 46 44 44 44 44 44 43 41 40 40 41 41 43 45 46 48 48 47 45
39 38 38 38 39 39 40 41 41 41 41 40 39 38 37 37 36 35 34 34 34 34 35 35 36 37 38 39 40 42 43 45 46 48 49 48 47 44 42 40 41 43 46 48 50 51 53 54 55 55 55 55 55 54 52 51 51 51 50 50 50 50 50 49 50 50 50 47 44 44 44 45 44 43 41 40 39 39 39 40 41 43 44 45 45 43
40 39 39 39 38 38 39 39 40 40 41 41 40 40 39 38 38 36 34 33 33 33 34 35 36 37 38 39 41 43 45 48 49 50 50 49 48 47 46 45 42 41 42 44 46 48 50 52 54 56 56 57 56 55 54 54 54 53 53 53 52 51 51 51 52 52 51 48 45 44 46 47 46 44 42 40 39 38 39 40 41 42 43 43 43 42
39 39 40 40 39 39 39 39 39 40 40 40 41 41 41 40 39 38 36 34 34 33 34 35 36 37 38 39 40 42 44 47 50 53 54 53 52 50 50 50 48 46 44 44 45 46 47 49 52 54 56 57 57 57 56 56 55 55 54 54 53 52 52 52 53 53 52 50 47 47 48 50 49 46 43 40 38 37 37 38 39 40 41 42 42 41
38 39 40 39 39 40 40 40 40 40 40 40 41 41 41 41 41 40 38 37 36 35 35 35 36 37 38 38 39 40 42 44 48 51 54 56 55 54 53 53 53 52 50 48 48 48 48 48 49 52 54 56 57 58 58 57 57 56 55 54 53 53 53 53 54 53 52 50 48 49 50 52 51 48 43 39 37 36 36 36 37 37 38 39 39 39
38 38 38 39 39 40 40 41 41 41 42 42 42 42 41 41 41 41 40 39 38 37 36 36 36 37 37 38 38 39 39 41 44 47 50 53 54 54 54 54 55 55 54 53 52 51 50 50 50 51 53 55 56 58 58 58 58 57 56 54 54 53 53 53 53 53 51 49 49 50 52 53 52 49 44 40 37 37 37 36 36 36 37 37 38 38
37 37 38 38 39 39 40 41 42 42 42 43 43 43 42 42 41 41 41 41 41 40 39 38 37 37 37 37 37 38 38 39 41 43 46 48 50 51 52 53 54 55 56 56 54 52 51 50 50 51 53 55 56 58 58 58 58 57 55 54 54 54 54 53 53 52 50 49 49 50 53 55 54 50 45 41 39 38 38 38 38 38 38 39 39 40
36 37 37 38 38 38 39 40 41 41 42 43 43 43 43 43 42 41 41 41 41 41 42 41 40 39 37 37 37 37 37 38 39 40 42 44 47 48 49 49 51 53 55 56 55 54 52 51 50 50 51 53 56 57 58 58 57 56 55 54 54 55 55 54 53 52 50 49 50 52 54 56 55 52 47 43 41 39 39 39 40 41 41 42 42 43
35 36 37 37 38 38 39 39 39 40 41 42 43 44 44 44 43 42 41 40 40 40 42 42 43 42 40 39 38 37 37 37 37 38 39 41 44 46 46 46 48 50 53 55 55 55 53 51 50 49 50 51 53 55 57 57 57 56 56 56 56 56 56 55 54 53 52 51 52 54 56 57 57 53 49 46 43 41 39 39 40 42 43 44 45 46
34 35 36 36 37 38 38 38 38 39 40 41 42 44 44 44 43 43 42 40 39 39 40 41 43 43 43 42 41 40 38 37 37 37 37 38 41 43 43 44 46 48 50 52 54 54 53 51 50 49 49 50 51 53 55 56 57 57 57 57 58 58 57 56 56 55 55 54 55 56 58 59 58 55 51 47 44 41 40 40 41 42 43 44 46 47
34 35 35 36 36 37 37 37 37 38 39 40 41 43 43 44 45 44 44 42 41 40 39 40 41 42 44 44 44 43 41 39 38 37 37 37 38 39 41 42 44 46 48 50 51 52 52 51 50 49 48 49 50 52 53 55 56 56 57 57 57 58 57 57 57 57 58 58 58 59 60 61 59 56 52 48 45 42 42 43 44 44 44 45 46 47
34 34 35 35 36 36 36 36 37 37 38 39 40 41 42 44 45 45 45 44 43 41 40 39 40 41 43 44 45 45 44 42 40 39 38 38 38 38 39 40 42 44 46 47 49 50 51 51 50 49 48 49 50 51 52 53 54 55 55 56 56 57 57 58 58 59 60 61 61 62 63 63 61 59 55 51 47 45 45 47 48 48 47 46 46 46
34 34 34 35 35 35 35 36 36 36 37 38 39 40 41 43 44 45 45 45 44 43 42 41 41 41 41 42 43 44 45 44 43 42 41 40 39 39 40 40 41 42 43 45 47 49 51 52 52 51 51 51 52 52 52 53 53 54 55 56 56 57 57 58 59 60 61 61 62 62 63 63 62 61 59 56 53 52 51 52 52 51 49 48 46 46
33 34 34 34 35 35 35 35 35 36 36 37 38 39 40 41 43 44 45 45 45 44 43 42 42 41 41 41 42 43 44 44 44 44 43 43 42 42 42 41 41 41 42 44 45 47 49 51 53 54 54 55 55 55 55 56 56 57 58 58 58 58 58 58 59 59 59 58 58 58 58 58 59 59 60 59 58 58 58 57 55 53 50 48 47 46
33 33 34 34 34 35 35 35 35 35 35 36 37 38 39 40 41 42 44 45 45 44 44 44 43 43 42 42 42 42 42 42 43 44 44 44 44 44 44 43 43 43 43 44 45 47 49 51 53 55 57 58 59 59 60 60 60 60 60 60 60 60 59 59 58 58 56 54 53 52 52 52 53 54 56 57 58 58 59 58 56 53 50 48 47 46
32 33 33 34 34 34 35 35 35 35 35 35 36 37 38 39 40 41 42 43 43 43 44 45 45 44 43 43 43 43 42 42 43 43 43 44 45 46 46 45 44 45 45 46 47 48 49 51 53 55 58 60 61 62 62 61 61 60 61 61 61 60 60 59 58 57 56 54 52 51 51 51 51 52 53 54 55 56 56 56 55 52 50 47 46 46
32 32 33 33 34 34 34 35 35 35 35 35 35 36 36 37 38 39 40 40 41 42 44 44 44 44 44 44 44 44 44 44 44 43 42 43 45 46 46 46 46 46 46 47 47 49 50 52 54 55 57 59 60 60 60 59 58 58 58 59 59 59 59 58 58 58 57 56 55 54 54 54 54 54 54 54 55 55 55 55 54 52 49 48 47 47
31 32 32 33 33 33 34 34 34 34 34 34 34 35 35 36 37 37 38 39 40 41 42 42 42 42 43 43 44 45 45 45 44 43 42 43 45 46 46 46 46 47 47 47 48 49 50 51 52 53 54 56 56 57 56 54 53 53 53 55 55 56 56 57 57 57 57 58 58 58 58 57 56 55 54 55 56 56 56 55 53 51 49 49 49 50
31 31 32 32 32 33 33 34 34 34 34 34 34 34 34 34 35 36 37 38 39 39 39 39 40 40 42 43 44 45 45 44 44 43 43 44 45 45 45 46 46 47 47 47 48 49 49 50 50 50 51 52 52 52 50 49 48 48 50 52 53 54 55 55 56 57 58 58 59 60 59 57 54 53 52 53 55 56 55 53 51 49 49 50 52 54
32 32 32 32 32 32 33 33 33 33 33 33 33 33 33 33 34 34 35 36 37 37 37 37 37 38 40 41 43 44 44 44 43 44 44 45 45 46 46 46 47 47 47 48 48 49 49 49 49 49 49 49 49 48 47 46 46 48 50 52 53 54 55 55 56 57 58 59 59 59 58 55 52 49 49 52 54 55 54 51 49 47 48 50 53 55
32 32 32 32 32 32 32 32 33 33 33 33 33 33 32 32 32 32 33 33 34 35 36 36 36 36 38 39 40 41 42 43 43 44 45 45 46 46 47 47 47 48 48 48 49 49 49 50 49 49 48 48 48 47 47 47 48 51 53 54 55 56 56 56 56 56 58 59 60 59 57 53 49 47 47 50 53 54 52 50 47 47 48 49 50 51
32 32 32 32 32 32 32 32 32 32 32 33 33 33 32 32 31 31 31 32 33 34 35 35 35 35 36 36 37 38 40 41 42 43 44 45 46 47 47 48 48 48 48 49 49 50 50 50 50 50 49 49 48 48 48 49 51 53 55 57 57 57 57 56 56 56 57 59 59 59 57 53 48 45 45 49 53 54 52 50 48 47 48 48 48 48
33 32 32 32 32 32 32 32 32 32 32 32 33 33 32 32 31 31 31 32 33 33 34 34 34 34 34 35 35 36 37 39 40 41 43 45 46 47 48 48 49 49 49 49 50 50 50 51 51 51 51 50 50 49 50 51 53 55 57 58 59 59 59 58 58 57 58 58 58 58 56 52 48 44 45 48 53 55 53 51 49 48 48 48 48 48
33 33 32 32 32 32 32 32 31 31 31 32 32 33 33 32 31 31 31 32 32 33 33 32 33 33 33 34 34 35 36 37 38 39 41 44 45 46 47 48 49 49 49 49 50 50 51 51 52 52 52 52 51 51 51 53 54 56 58 60 61 61 62 62 61 61 60 60 59 57 55 51 48 45 45 48 52 54 54 52 51 50 49 48 48 49
33 33 32 32 32 32 32 32 31 31 31 32 32 33 33 33 32 32 31 31 31 31 31 31 31 31 32 32 33 33 34 34 35 37 39 41 43 44 45 47 47 48 48 49 49 50 50 51 52 52 53 53 52 52 52 53 55 57 59 61 62 64 64 65 65 64 63 62 62 60 56 53 49 47 46 48 51 54 55 55 54 52 51 49 49 49
33 32 32 32 32 32 32 32 32 32 32 32 32 33 33 33 33 33 32 30 30 29 29 30 30 31 31 32 32 33 33 33 34 35 37 38 39 41 42 44 45 46 47 48 49 49 50 51 52 52 53 53 52 52 52 53 54 55 57 59 61 63 65 66 66 65 65 65 65 64 61 56 52 50 49 49 51 53 55 56 56 55 54 52 51 49
32 32 32 32 32 32 32 32 32 32 32 32 32 33 34 34 35 34 33 31 29 28 28 29 30 30 31 31 32 32 32 32 33 33 34 36 37 38 39 40 42 44 45 46 47 48 49 50 51 52 52 52 52 52 52 52 53 54 54 55 57 59 61 62 63 63 64 65 65 65 63 59 56 53 52 51 51 51 53 54 55 56 57 56 54 52
32 32 32 32 32 32 32 33 33 32 32 32 32 33 34 35 36 36 34 32 30 28 28 29 29 30 30 31 32 32 32 31 31 32 33 33 34 35 36 37 39 40 42 44 45 47 48 49 50 50 51 51 52 52 52 52 53 53 53 53 54 55 56 57 59 60 62 63 64 65 64 61 58 56 54 53 52 51 51 52 54 56 57 58 57 55
32 32 32 32 32 32 32 33 33 32 32 32 32 32 34 35 36 36 36 34 32 29 28 28 28 29 29 30 31 31 31 31 31 31 31 32 32 33 34 35 36 38 39 41 43 45 46 47 48 49 50 51 51 51 51 52 53 53 53 53 53 53 53 54 56 58 60 61 63 64 64 63 61 59 57 56 54 53 52 52 53 55 57 58 58 57
32 32 32 31 32 32 32 32 32 32 32 32 32 32 33 34 35 36 37 36 34 31 29 28 28 28 28 29 29 29 29 30 30 30 30 30 31 31 32 33 34 35 36 38 40 42 44 45 46 47 49 49 50 50 51 52 52 53 53 54 53 52 52 53 54 56 57 60 61 63 64 64 63 62 60 59 57 56 53 52 54 56 58 58 57 56
32 32 31 31 32 32 32 32 32 32 32 32 32 32 32 33 34 36 37 37 36 34 31 29 28 28 28 28 28 27 27 28 28 28 29 29 30 30 31 32 33 33 34 35 37 39 41 42 43 45 46 47 48 49 50 51 51 52 53 53 53 52 52 53 53 54 55 57 60 61 62 63 63 63 62 61 60 58 55 54 55 57 59 59 58 57
32 32 31 31 31 31 31 32 32 32 32 32 31 31 31 32 33 35 36 37 37 36 33 30 28 27 27 27 27 26 26 26 26 27 28 28 29 29 30 30 31 32 33 34 35 36 37 39 40 42 43 44 46 47 48 49 50 51 52 52 52 52 53 52 52 52 54 55 57 58 60 61 61 60 60 59 58 57 56 56 57 60 62 62 60 59
32 31 31 31 31 31 31 31 32 32 32 32 32 31 31 32 32 34 35 37 38 37 35 32 30 28 27 27 26 25 25 25 25 26 27 27 28 28 29 29 30 31 31 32 33 34 35 36 38 39 41 42 43 45 46 47 48 49 50 51 52 52 52 51 51 51 52 53 53 54 55 55 55 55 55 56 57 57 58 59 60 63 64 64 62 60
32 31 31 31 31 31 31 31 31 31 32 32 32 31 31 31 31 32 34 36 37 38 37 35 33 30 29 28 26 25 25 25 25 25 26 26 27 27 28 28 29 29 30 30 31 31 32 33 35 36 38 39 41 43 44 45 46 47 48 49 50 50 50 51 51 50 50 51 50 50 49 48 48 49 52 56 58 60 60 61 63 64 64 63 62 59
32 31 31 31 30 30 31 30 31 31 32 32 31 31 31 31 31 31 32 34 36 38 39 38 36 34 32 30 28 27 26 25 25 24 24 25 25 26 27 27 27 28 28 28 29 29 30 31 32 33 35 36 38 40 42 43 44 45 46 47 48 48 49 49 49 48 48 47 47 46 43 41 42 46 52 56 60 62 62 62 62 62 62 61 59 56
32 32 31 31 30 30 30 30 30 31 31 31 31 31 31 31 31 31 32 33 35 37 38 39 39 37 35 33 31 30 28 27 26 25 24 24 24 25 25 26 26 26 26 26 27 27 28 29 30 31 32 34 35 37 39 40 41 43 44 44 45 45 46 46 46 45 44 42 41 39 38 38 41 46 51 56 59 61 61 61 60 59 58 56 54 51
33 32 31 31 30 30 30 30 30 30 31 31 31 31 31 31 31 31 31 32 33 35 37 39 39 39 37 35 34 32 30 29 27 26 25 24 23 23 23 24 24 25 25 25 25 25 25 26 27 29 30 32 33 35 36 38 39 40 41 41 42 43 43 42 41 40 38 36 34 34 35 38 42 47 51 55 58 58 59 57 56 54 52 50 48 45
33 32 32 31 31 30 30 30 30 30 30 31 31 31 31 31 30 30 31 31 32 34 36 37 38 38 38 37 35 33 32 30 29 27 26 24 23 22 22 22 23 23 23 23 23 23 23 24 25 26 28 30 31 32 34 35 37 37 38 39 39 39 39 38 37 34 32 30 30 31 34 39 43 48 52 54 55 55 54 53 51 49 46 44 42 39
Wind_Direction
236 235 235 235 234 234 234 234 234 233 232 230 231 233 235 234 230 227 224 224 225 227 228 228 228 226 223 221 221 222 224 226 227 229 230 231 231 230 230 231 231 231 231 231 231 231 231 232 232 232 232 232 232 232 232 233 233 233 234 234 235 236 237 237 238 238 239 239 239 240 241 242 242 242 242 243 243 244 244 244 244 243 244 246 248 250
242 238 233 231 229 229 231 234 237 238 238 236 235 236 238 238 233 227 221 219 218 220 223 225 226 226 225 224 224 224 225 225 226 227 228 229 230 230 230 230 230 231 231 231 231 230 231 231 232 232 232 232 232 232 233 233 233 234 234 234 235 235 236 237 238 239 239 240 240 241 242 242 241 241 241 241 241 242 243 243 243 243 244 248 251 253
240 236 229 226 224 223 225 230 235 240 242 242 241 240 240 240 238 234 228 224 222 221 221 221 222 224 225 226 226 225 225 225 225 226 228 229 230 230 230 230 230 230 231 231 231 231 231 231 232 232 232 232 232 232 233 233 233 234 234 235 235 235 236 237 238 239 240 241 241 242 242 242 242 241 240 239 239 240 241 242 242 242 244 247 251 254
236 236 232 228 227 226 227 230 234 239 243 246 246 245 243 243 241 239 235 233 232 230 227 222 219 220 222 224 226 227 226 226 225 226 227 229 231 231 230 230 230 230 230 231 231 231 231 231 232 232 232 232 232 233 233 233 234 234 235 235 235 236 236 237 238 239 240 241 242 242 243 243 242 241 240 239 238 238 240 240 241 242 243 245 248 251
234 235 236 236 236 235 235 236 238 240 242 244 245 246 245 245 244 242 240 239 238 238 235 229 224 221 220 221 223 226 226 226 226 225 226 227 229 230 230 229 229 230 230 231 231 232 232 232 232 232 233 233 233 233 233 234 234 234 235 235 236 236 236 237 238 239 240 241 242 242 243 243 243 242 241 240 239 239 239 240 241 243 244 246 247 249
231 233 236 238 240 242 242 241 241 241 241 240 240 241 243 244 245 245 244 243 243 242 239 234 229 225 221 220 220 223 225 226 226 225 225 226 227 228 228 228 229 229 230 231 232 232 233 233 233 233 233 233 233 233 234 234 234 235 235 235 235 235 235 236 237 238 239 240 241 242 243 244 244 244 243 242 242 241 241 241 242 245 247 248 249 249
228 229 232 235 238 241 242 243 243 242 241 240 239 238 238 240 243 245 247 247 248 246 243 237 231 227 224 222 221 222 223 225 226 226 226 226 227 227 227 227 227 228 228 230 231 233 234 234 233 233 233 233 234 234 234 235 235 235 235 234 234 233 234 234 235 237 238 239 241 242 244 245 245 245 245 245 245 244 243 243 244 246 248 249 249 249
228 228 228 231 234 238 240 242 243 243 242 241 240 239 238 238 239 242 245 248 250 250 247 241 234 229 227 226 226 225 224 225 226 227 228 228 228 228 227 227 227 227 226 227 229 231 233 234 234 234 234 233 234 234 235 235 236 236 235 234 232 232 232 233 234 235 237 239 241 243 245 245 246 247 247 248 247 246 245 244 245 247 248 248 248 248
234 232 230 230 233 236 239 241 243 243 243 242 241 240 239 238 238 239 241 245 248 249 249 245 239 234 231 230 230 230 228 227 227 229 230 230 230 229 229 228 228 227 226 226 227 229 231 233 234 235 234 234 234 234 235 236 236 236 235 234 232 231 231 232 233 234 236 238 242 244 245 247 248 248 249 249 249 248 246 245 245 245 246 247 247 247
243 240 237 234 235 236 238 240 241 242 242 242 241 240 240 239 239 239 239 241 243 246 247 247 245 241 238 236 234 234 233 231 230 230 231 231 232 231 231 230 229 228 227 226 226 227 229 231 232 233 233 234 233 233 234 235 235 235 235 234 232 231 231 232 233 234 235 238 242 244 246 247 248 249 250 250 250 248 246 244 243 244 245 245 246 246
248 246 244 241 239 239 239 239 239 240 241 241 241 241 240 240 240 240 240 240 241 242 244 246 247 246 244 241 238 236 235 234 232 231 230 230 231 232 233 232 231 230 229 228 228 228 229 230 231 231 232 233 233 233 233 233 233 233 233 233 232 232 233 233 234 235 236 238 241 244 245 246 248 249 250 251 250 248 246 243 243 244 245 246 246 246
249 249 248 246 244 242 241 240 239 239 240 240 241 242 242 242 242 243 244 243 242 241 242 243 245 247 247 245 242 239 236 234 232 231 230 229 229 231 232 233 233 233 232 231 230 229 230 230 230 231 231 231 232 232 232 233 232 232 231 232 232 233 234 235 235 236 236 239 241 242 244 245 247 249 251 252 251 249 247 245 245 245 246 247 248 247
249 249 249 248 247 245 244 243 241 240 240 240 241 242 243 244 245 246 246 246 245 243 241 241 242 244 245 245 244 241 237 234 232 231 230 229 229 229 230 232 233 234 234 233 232 231 231 230 230 230 230 231 231 231 231 232 232 232 232 232 233 234 235 235 236 236 237 239 240 241 242 243 245 248 251 253 253 252 250 249 248 248 248 249 249 247
251 250 248 248 247 246 246 245 244 244 243 242 242 243 244 245 246 247 247 247 247 245 243 240 239 239 241 242 243 242 240 237 234 232 231 231 230 230 231 231 232 233 233 232 231 231 230 230 229 229 229 229 229 229 229 230 231 231 231 232 233 234 235 235 236 237 238 239 239 239 240 242 245 248 252 254 254 254 253 252 251 250 249 249 248 245
255 253 250 248 247 246 246 246 246 246 245 245 244 244 244 244 245 247 248 248 248 247 244 241 238 237 237 239 240 242 242 241 238 236 235 233 232 232 232 233 234 233 231 229 226 225 225 227 227 228 228 228 228 228 227 227 227 229 230 231 232 234 235 236 237 239 241 242 241 239 239 242 246 250 253 254 253 253 253 252 252 251 249 248 245 241
255 255 254 251 249 248 247 247 247 247 247 247 247 246 246 246 246 246 247 248 248 248 246 243 240 237 236 236 237 239 241 243 243 242 241 239 237 235 234 235 235 235 232 228 224 222 222 223 225 226 227 228 229 228 228 227 227 228 229 231 232 233 235 236 238 240 243 244 243 241 240 243 247 251 254 253 252 251 251 252 252 251 250 247 243 239
255 255 255 254 253 251 249 249 248 248 248 248 248 248 248 248 247 247 247 248 248 248 246 245 242 239 237 236 236 236 239 241 244 245 245 244 243 240 237 236 236 236 236 234 232 229 227 225 225 226 227 228 229 230 229 229 229 230 231 233 234 235 235 236 238 241 243 244 243 242 241 243 246 250 253 252 250 249 250 251 252 251 249 246 242 238
254 255 255 255 254 253 252 252 251 251 250 250 250 249 249 249 249 248 248 247 247 246 246 245 244 241 239 238 237 236 237 239 242 244 245 246 245 243 241 239 237 236 237 238 238 238 236 234 232 230 230 230 231 231 231 231 232 232 233 234 235 236 237 238 239 241 242 242 241 240 240 242 245 248 250 249 248 247 247 249 250 249 248 245 242 238
253 254 255 255 254 254 253 253 252 252 252 251 251 251 250 250 250 249 248 247 246 245 245 245 244 243 241 240 238 237 237 238 240 241 243 243 243 242 241 240 239 237 236 237 239 240 241 241 240 239 237 236 235 234 234 234 234 233 234 235 236 237 238 239 240 241 241 240 239 239 239 240 243 245 247 247 246 245 245 246 246 247 246 244 241 238
252 253 254 254 254 254 253 253 252 252 252 252 251 251 251 251 250 250 249 248 247 246 245 245 244 244 243 242 240 239 238 238 238 239 239 240 239 239 239 239 239 238 236 236 237 239 242 244 244 244 243 241 239 238 237 236 235 235 235 235 236 237 238 239 240 240 240 239 238 237 238 239 241 243 245 245 245 244 244 244 244 244 244 243 241 239
252 252 253 253 254 253 253 252 252 252 252 251 251 251 251 251 250 250 250 249 249 248 247 246 245 244 244 243 241 240 238 237 238 238 238 238 238 238 238 239 240 239 237 236 236 237 241 243 245 245 244 242 240 238 237 236 235 235 234 235 236 237 238 238 239 239 239 238 237 237 238 239 240 241 243 243 243 243 244 245 245 244 244 243 242 240
252 251 252 252 253 253 253 252 252 252 252 251 251 250 250 250 250 249 249 249 248 248 247 246 246 245 244 243 242 241 239 237 237 237 238 239 239 239 240 240 241 240 238 236 235 235 238 242 244 245 243 240 238 236 235 235 234 234 234 234 235 236 237 237 237 238 237 237 237 237 238 238 239 240 241 241 240 240 242 244 245 245 244 244 243 242
252 251 251 252 252 252 252 252 252 252 251 251 250 250 249 249 249 248 248 247 246 246 246 246 246 245 245 244 243 242 240 238 237 236 237 239 240 241 242 242 242 241 240 237 234 234 235 238 241 242 241 239 237 235 234 234 233 234 234 235 235 236 237 237 236 236 236 236 237 238 238 239 238 238 239 239 239 239 240 241 243 243 243 243 243 243
253 252 251 251 251 251 252 252 252 252 251 251 250 250 249 248 248 248 247 246 246 245 245 245 245 246 246 245 244 243 241 239 237 236 236 237 238 240 241 242 242 241 240 237 235 233 233 235 236 237 236 235 235 235 234 234 234 234 235 236 237 237 237 237 236 235 235 236 237 238 239 239 238 237 238 239 240 239 239 240 240 240 240 240 241 241
254 253 252 251 251 251 252 252 252 252 252 251 251 250 249 248 248 247 247 246 246 245 244 244 244 244 245 246 246 245 243 241 239 238 237 236 236 237 238 239 239 240 239 237 235 233 233 233 233 232 231 231 232 234 234 234 235 236 237 238 239 238 238 237 236 236 236 236 238 239 240 240 238 236 237 239 241 242 241 241 240 240 239 238 238 238
254 253 252 251 251 251 251 251 251 252 252 252 252 251 250 249 248 248 247 246 246 245 245 244 244 244 245 246 246 246 246 244 242 240 239 237 236 235 235 234 235 236 236 236 235 234 234 234 233 232 230 230 231 233 235 236 238 239 240 240 240 239 238 237 236 237 237 239 240 241 242 241 239 237 236 238 240 241 241 242 242 242 241 240 239 239
255 254 253 252 252 252 251 251 251 252 252 252 252 251 251 250 250 249 248 247 246 246 246 246 246 245 245 246 246 247 247 246 245 244 242 240 239 237 235 234 232 232 232 233 233 234 234 235 235 234 233 232 232 234 236 239 241 242 243 243 242 241 239 238 237 238 239 241 242 242 242 241 240 238 237 238 240 241 241 242 243 243 243 242 242 241
255 254 254 253 252 252 252 251 251 252 252 252 252 252 251 251 250 249 248 248 247 247 247 247 247 247 247 246 247 247 247 247 247 246 245 243 242 240 238 236 234 233 232 231 231 232 232 233 234 234 235 235 235 236 238 240 242 244 245 245 244 242 240 239 238 239 240 240 240 239 238 239 240 240 241 242 243 244 244 244 244 245 244 243 242 242
255 254 254 253 253 252 252 252 252 252 252 252 252 252 252 251 251 250 249 249 248 248 248 248 248 249 249 248 248 247 247 248 247 247 246 245 244 243 242 240 238 237 235 234 233 233 233 233 234 234 235 236 237 238 239 241 243 244 245 245 244 243 241 239 238 238 238 238 236 235 236 238 240 242 244 245 247 247 248 247 247 246 245 243 241 241
255 255 255 254 253 253 252 252 252 252 252 252 252 252 252 251 251 250 250 250 250 249 249 249 249 249 250 250 249 249 248 247 247 247 246 245 245 244 244 242 241 241 240 239 238 237 237 237 237 237 237 238 239 240 241 242 243 243 243 243 242 241 240 239 238 238 237 236 235 235 237 239 242 245 246 247 248 248 248 248 247 246 244 242 241 241
255 255 255 254 254 254 253 253 252 252 252 252 252 252 252 251 251 251 251 252 251 251 250 250 250 250 250 250 250 250 249 248 247 247 246 246 245 245 244 243 243 242 242 241 241 241 241 241 241 241 240 240 241 241 241 242 242 242 241 240 240 239 239 239 239 238 238 237 237 238 240 242 245 247 248 247 247 247 247 246 245 244 243 242 242 242
254 254 254 254 254 254 254 253 253 253 252 252 252 252 251 251 251 251 251 251 251 251 251 251 250 250 250 250 250 250 249 248 247 247 247 246 246 245 244 243 243 242 242 242 242 242 243 243 243 243 242 241 241 240 239 239 239 239 238 237 237 238 239 239 239 238 238 238 238 239 241 243 244 245 245 245 246 247 247 245 244 243 243 244 244 244
254 253 253 254 254 254 254 254 254 254 253 252 252 251 251 251 251 251 251 251 251 252 252 252 251 251 250 250 249 249 249 249 248 247 247 246 246 245 244 243 243 242 242 241 242 242 243 244 244 244 242 241 239 237 236 235 235 235 234 234 235 236 238 239 239 238 238 238 239 240 241 241 240 239 239 240 243 246 247 245 242 241 243 245 247 247
253 253 253 253 253 254 254 254 254 254 254 253 252 251 250 250 250 249 250 250 251 251 252 252 251 251 250 250 249 249 249 249 249 248 247 247 246 246 245 244 243 243 242 241 241 242 242 243 244 244 243 241 238 235 232 230 229 229 230 230 232 235 237 238 238 238 238 238 239 239 239 237 236 236 237 239 242 245 246 244 241 240 242 245 247 247
251 252 252 252 253 253 254 254 254 254 254 253 252 251 249 249 248 248 248 249 250 250 250 250 250 250 250 249 249 249 249 248 248 248 247 247 246 246 245 244 244 243 242 242 242 241 242 242 243 243 243 241 239 234 230 227 225 225 226 227 230 232 235 236 237 237 237 237 238 237 236 234 234 236 238 241 243 245 245 242 239 239 242 244 244 243
250 251 251 251 252 253 253 254 254 254 253 252 251 250 249 248 247 247 247 247 248 248 248 248 248 249 249 249 248 248 248 247 247 248 248 247 246 245 245 244 244 243 243 243 243 242 242 242 243 243 243 242 239 236 232 228 226 225 225 226 228 231 233 235 236 236 235 235 234 233 232 231 233 236 239 241 243 244 243 240 237 238 241 242 241 239
249 250 250 251 251 252 252 253 253 253 253 252 251 249 248 247 247 247 246 246 246 245 245 245 246 247 248 248 248 248 247 247 247 247 247 247 246 245 244 243 243 243 243 243 243 243 243 243 242 242 242 242 240 238 235 232 229 228 228 228 229 231 233 236 237 237 236 234 231 230 230 231 233 236 238 240 242 243 242 239 237 237 239 240 239 238
248 249 250 250 250 251 251 252 252 252 251 250 249 248 247 246 246 247 247 246 244 243 242 242 243 245 246 247 248 248 248 247 247 247 247 247 246 245 244 243 243 243 243 243 243 243 243 243 242 242 242 242 241 240 239 237 234 233 232 232 233 234 235 237 239 239 238 236 233 232 233 234 236 236 237 238 240 241 241 239 238 237 238 239 239 238
247 248 249 249 250 250 250 250 250 250 250 249 249 247 246 245 245 246 247 246 244 242 241 241 242 244 245 246 247 247 247 247 246 246 246 246 246 245 244 243 243 242 242 243 243 243 243 243 242 242 242 242 241 241 241 240 239 238 238 237 237 237 238 239 240 240 240 238 236 236 237 237 237 236 236 237 239 241 241 241 239 238 238 238 238 237
247 247 248 249 249 249 249 249 249 249 249 248 248 247 245 244 245 246 247 246 244 242 241 241 242 243 244 245 245 246 246 246 245 245 245 245 246 245 245 244 243 243 242 242 242 242 242 242 243 242 242 242 241 241 241 241 241 242 242 242 241 241 240 240 240 240 240 239 238 238 238 238 236 235 234 236 239 241 243 243 242 240 240 239 238 236
246 247 247 248 248 249 248 248 248 248 248 248 247 246 245 244 244 245 246 246 244 242 241 241 242 243 243 244 244 245 246 246 246 245 244 244 244 244 244 244 244 243 242 242 242 242 242 242 242 242 242 242 242 242 242 242 242 243 243 244 244 244 243 242 241 241 240 239 239 238 239 238 236 235 234 236 239 243 245 245 243 242 241 240 240 238
244 245 246 247 248 248 248 247 247 247 247 247 247 246 245 244 243 244 245 245 245 243 241 241 241 241 242 243 244 245 246 247 247 246 245 244 244 244 243 243 243 243 242 242 241 241 241 241 241 242 242 242 242 242 242 243 243 243 244 244 244 244 244 243 242 241 240 240 240 239 239 239 238 237 236 238 241 244 246 245 243 240 238 238 238 237
243 244 246 247 248 248 248 247 247 246 246 246 246 246 245 244 243 243 244 245 245 243 241 240 239 239 240 242 243 245 246 247 247 247 246 245 244 244 243 243 242 242 241 241 241 240 240 240 241 241 242 242 242 242 243 243 243 243 243 244 244 244 243 243 242 241 241 240 240 240 241 241 241 240 239 240 242 244 246 245 242 237 234 233 232 232
242 243 245 246 247 247 248 247 247 246 246 246 246 246 245 244 243 242 243 244 244 244 242 240 239 239 239 240 242 243 245 247 248 248 248 247 245 244 243 243 242 242 241 240 240 240 240 240 240 241 241 241 242 242 242 243 243 243 243 244 244 243 243 242 241 241 240 240 240 241 241 242 242 242 242 243 244 245 247 246 242 236 231 229 228 229
241 243 244 246 247 247 248 247 247 246 245 245 245 245 245 245 243 242 242 242 243 243 242 241 240 239 239 240 241 242 244 246 248 249 249 248 246 245 244 243 242 242 241 240 240 240 240 240 240 240 241 241 241 242 242 242 243 243 243 243 243 243 243 242 241 239 239 238 239 239 240 241 242 243 244 244 245 245 246 244 240 235 230 227 227 227
240 242 243 245 246 247 247 247 247 246 245 244 244 244 245 245 244 243 242 242 242 242 242 241 240 240 240 240 241 242 244 246 248 249 249 249 247 246 244 243 242 242 241 240 240 240 239 240 240 240 240 241 241 242 242 242 242 242 242 242 242 242 241 241 240 238 237 237 236 237 238 239 240 241 242 242 241 241 240 238 235 232 229 227 226 227
239 241 242 244 245 246 247 247 246 245 244 243 243 243 244 244 245 244 243 242 241 241 241 241 241 241 242 242 242 243 243 245 247 249 249 249 248 247 245 244 243 242 241 240 240 240 239 240 240 240 240 241 241 241 241 241 241 242 242 242 241 241 240 240 239 238 237 236 235 236 237 238 239 240 240 239 236 235 233 231 230 228 227 227 226 226
238 239 241 242 244 245 246 246 246 245 244 243 242 242 243 244 244 245 244 243 242 241 240 241 241 242 243 243 243 243 243 244 246 248 249 249 249 248 247 245 244 242 241 240 240 240 239 239 239 239 239 240 240 241 241 241 241 241 241 241 240 240 239 238 238 237 236 235 235 235 236 238 241 241 240 236 233 231 229 227 226 226 225 226 226 226
237 238 240 241 243 244 245 246 246 245 244 243 242 242 242 243 244 245 245 244 243 241 240 240 240 241 242 243 243 242 242 243 245 246 248 248 249 248 248 247 246 244 243 241 241 240 239 239 238 238 238 238 239 240 240 240 240 240 240 240 239 238 237 236 236 235 234 233 233 234 237 240 241 241 239 235 232 230 228 226 225 224 224 224 224 224
236 237 238 240 241 243 245 245 245 245 244 243 242 241 241 241 243 244 245 245 244 242 241 240 240 240 241 241 242 241 240 241 243 245 247 248 248 248 248 248 247 246 245 243 242 241 241 239 239 238 237 237 237 238 239 239 239 239 239 238 238 236 235 233 232 231 230 230 231 234 237 239 239 238 236 233 231 229 227 226 225 224 224 223 223 222
235 236 237 239 241 242 244 245 245 245 244 243 241 240 240 241 242 243 244 245 244 243 242 241 240 240 240 240 239 239 238 238 240 243 245 247 248 248 248 248 247 247 246 245 245 244 243 242 240 239 237 236 236 236 237 238 238 237 237 237 236 234 231 229 227 226 225 227 230 234 236 237 236 234 232 230 228 226 226 225 224 224 224 223 222 222
Height
3042 3043 3045 3046 3047 3048 3050 3051 3052 3053 3054 3055 3057 3059 3060 3061 3062 3063 3064 3065 3066 3068 3069 3070 3071 3072 3073 3074 3076 3077 3079 3081 3082 3085 3087 3089 3091 3092 3095 3096 3098 3100 3102 3104 3105 3107 3108 3110 3111 3113 3115 3116 3118 3120 3121 3122 3123 3125 3126 3127 3129 3130 3132 3133 3133 3134 3135 3136 3138 3139 3141 3142 3143 3144 3145 3146 3147 3148 3149 3150 3151 3151 3152 3153 3153 3154
3041 3042 3043 3044 3046 3047 3048 3050 3051 3051 3052 3053 3054 3055 3057 3059 3060 3061 3061 3061 3062 3064 3066 3068 3069 3070 3071 3072 3073 3074 3076 3077 3079 3081 3083 3086 3088 3090 3091 3094 3096 3097 3099 3101 3102 3104 3106 3107 3109 3111 3112 3114 3116 3117 3118 3119 3121 3122 3123 3125 3126 3127 3129 3130 3131 3132 3133 3134 3135 3136 3138 3139 3141 3142 3143 3144 3145 3146 3146 3148 3148 3149 3150 3151 3151 3152
3040 3041 3041 3042 3044 3045 3046 3048 3049 3050 3051 3051 3051 3052 3054 3055 3057 3058 3058 3059 3059 3059 3061 3063 3066 3068 3069 3070 3071 3072 3073 3075 3076 3078 3081 3083 3085 3087 3089 3091 3093 3095 3096 3098 3099 3101 3103 3104 3106 3107 3109 3111 3113 3114 3116 3117 3118 3119 3121 3122 3123 3125 3126 3127 3129 3130 3131 3131 3132 3134 3135 3136 3138 3139 3141 3142 3143 3144 3145 3145 3146 3147 3148 3149 3149 3150
3040 3040 3040 3041 3042 3043 3044 3045 3046 3048 3049 3050 3050 3051 3051 3052 3053 3054 3056 3057 3057 3058 3058 3060 3061 3064 3066 3068 3069 3070 3071 3074 3075 3076 3078 3080 3082 3084 3086 3088 3090 3091 3093 3095 3097 3098 3100 3101 3103 3105 3106 3108 3110 3111 3113 3114 3115 3116 3118 3119 3121 3122 3123 3125 3126 3127 3128 3129 3130 3131 3132 3134 3135 3136 3138 3139 3141 3141 3142 3143 3144 3145 3146 3146 3147 3148
3037 3038 3039 3040 3040 3041 3042 3043 3044 3046 3046 3048 3048 3049 3049 3050 3051 3051 3053 3054 3055 3056 3058 3059 3061 3061 3062 3064 3066 3068 3069 3071 3073 3075 3076 3077 3079 3081 3082 3085 3086 3089 3091 3092 3094 3096 3097 3098 3100 3102 3103 3105 3107 3108 3110 3111 3112 3114 3115 3116 3118 3119 3120 3121 3123 3124 3125 3126 3127 3128 3130 3131 3132 3134 3135 3137 3138 3139 3140 3141 3142 3142 3143 3144 3145 3145
3035 3036 3037 3038 3039 3039 3041 3041 3042 3043 3045 3045 3046 3047 3048 3048 3049 3049 3050 3051 3052 3054 3055 3057 3059 3060 3060 3061 3063 3066 3067 3069 3071 3072 3074 3076 3076 3078 3079 3081 3083 3086 3087 3089 3091 3093 3094 3096 3097 3099 3101 3102 3104 3106 3107 3109 3110 3111 3112 3114 3115 3116 3118 3119 3120 3121 3122 3124 3125 3126 3127 3128 3130 3131 3132 3134 3136 3137 3138 3139 3139 3140 3141 3141 3142 3142
3033 3034 3035 3036 3037 3038 3039 3040 3040 3041 3042 3043 3043 3044 3045 3046 3047 3047 3048 3048 3050 3051 3052 3054 3055 3056 3058 3058 3059 3061 3064 3066 3068 3070 3071 3073 3074 3075 3077 3079 3081 3082 3084 3086 3088 3090 3091 3093 3094 3096 3098 3099 3101 3102 3104 3106 3107 3108 3110 3111 3112 3114 3115 3116 3117 3119 3120 3121 3122 3123 3124 3126 3127 3128 3130 3131 3133 3134 3135 3136 3137 3137 3138 3139 3139 3139
3031 3031 3032 3033 3034 3035 3036 3037 3038 3039 3040 3041 3041 3042 3042 3043 3044 3045 3046 3046 3047 3048 3049 3050 3052 3053 3055 3056 3057 3058 3060 3062 3065 3067 3068 3070 3071 3072 3074 3076 3078 3080 3081 3084 3086 3087 3088 3090 3091 3093 3095 3096 3098 3100 3101 3102 3104 3106 3107 3108 3110 3111 3112 3114 3115 3116 3117 3118 3119 3121 3122 3123 3124 3125 3127 3128 3130 3131 3132 3133 3134 3135 3136 3136 3136 3136
3028 3029 3029 3030 3031 3033 3034 3035 3036 3037 3038 3038 3039 3040 3040 3041 3041 3043 3044 3045 3045 3045 3046 3046 3048 3050 3051 3053 3055 3056 3057 3059 3061 3064 3065 3066 3068 3069 3071 3073 3075 3077 3079 3081 3082 3084 3086 3087 3089 3090 3091 3093 3095 3096 3098 3100 3101 3103 3105 3106 3107 3108 3110 3111 3112 3113 3114 3116 3116 3118 3119 3120 3121 3122 3124 3126 3127 3128 3129 3130 3131 3132 3132 3132 3133 3133
3025 3026 3027 3028 3029 3030 3031 3032 3033 3034 3035 3036 3036 3037 3037 3038 3039 3040 3041 3042 3042 3043 3044 3044 3045 3046 3048 3051 3052 3054 3055 3056 3058 3061 3062 3063 3065 3066 3067 3069 3071 3073 3075 3077 3079 3081 3082 3084 3086 3087 3089 3090 3091 3093 3095 3096 3098 3100 3102 3103 3104 3105 3107 3108 3109 3111 3111 3112 3114 3115 3116 3117 3118 3120 3121 3122 3124 3125 3126 3127 3128 3129 3129 3130 3130 3131
3023 3023 3024 3025 3026 3027 3028 3029 3030 3031 3032 3033 3033 3034 3035 3036 3036 3037 3038 3038 3040 3041 3042 3042 3042 3043 3045 3047 3049 3051 3052 3054 3056 3058 3060 3061 3062 3064 3065 3066 3068 3069 3071 3072 3074 3076 3079 3080 3082 3084 3085 3087 3088 3090 3091 3093 3095 3096 3099 3100 3101 3102 3104 3105 3106 3107 3108 3109 3111 3112 3113 3114 3115 3117 3118 3119 3121 3122 3123 3124 3125 3125 3126 3127 3127 3127
3020 3021 3021 3022 3023 3024 3025 3026 3027 3028 3029 3030 3031 3031 3032 3033 3034 3035 3036 3036 3037 3038 3039 3040 3041 3041 3042 3043 3045 3047 3049 3051 3053 3055 3057 3058 3060 3061 3063 3064 3065 3066 3067 3069 3071 3073 3075 3076 3078 3080 3081 3083 3085 3086 3088 3090 3091 3093 3095 3096 3098 3099 3101 3102 3103 3104 3105 3106 3108 3109 3110 3111 3112 3114 3115 3116 3117 3119 3120 3121 3121 3122 3123 3124 3124 3125
3017 3018 3019 3020 3021 3021 3022 3023 3025 3026 3026 3027 3028 3029 3030 3031 3031 3032 3033 3033 3034 3035 3036 3037 3038 3039 3040 3041 3042 3044 3046 3048 3050 3052 3054 3055 3056 3058 3060 3061 3062 3062 3064 3066 3067 3070 3071 3073 3074 3076 3078 3080 3081 3083 3085 3086 3088 3090 3091 3093 3095 3096 3097 3099 3100 3101 3102 3103 3105 3106 3107 3108 3109 3111 3112 3113 3115 3116 3116 3117 3118 3119 3120 3121 3121 3122
3014 3016 3016 3017 3018 3019 3020 3021 3022 3022 3023 3024 3025 3026 3027 3028 3029 3029 3030 3031 3031 3032 3033 3034 3035 3036 3037 3039 3040 3041 3043 3044 3046 3049 3050 3051 3053 3055 3057 3058 3059 3060 3061 3063 3064 3066 3068 3070 3071 3072 3075 3076 3078 3080 3082 3084 3086 3087 3089 3090 3091 3093 3094 3095 3096 3097 3099 3100 3102 3103 3104 3105 3106 3108 3109 3110 3111 3112 3113 3114 3115 3116 3117 3118 3118 3119
3011 3012 3013 3014 3015 3016 3017 3018 3019 3020 3021 3021 3023 3024 3025 3025 3026 3026 3027 3028 3029 3030 3031 3031 3032 3032 3034 3036 3037 3038 3040 3041 3043 3045 3046 3048 3049 3051 3053 3055 3057 3058 3059 3060 3061 3063 3065 3066 3067 3068 3071 3073 3075 3076 3079 3081 3083 3084 3086 3087 3088 3089 3090 3091 3093 3094 3095 3096 3098 3099 3100 3101 3103 3105 3106 3107 3108 3109 3110 3111 3112 3113 3114 3115 3115 3116
3008 3010 3010 3011 3012 3013 3014 3015 3016 3017 3018 3019 3020 3021 3021 3022 3022 3023 3024 3025 3026 3027 3028 3028 3029 3029 3030 3031 3034 3036 3038 3039 3040 3041 3043 3045 3046 3048 3050 3051 3053 3055 3056 3057 3058 3060 3061 3062 3063 3065 3067 3069 3071 3072 3075 3077 3079 3081 3082 3082 3084 3085 3087 3088 3090 3091 3092 3093 3094 3096 3097 3098 3100 3102 3103 3104 3105 3106 3107 3108 3109 3110 3111 3111 3112 3113
3005 3006 3007 3008 3009 3010 3011 3012 3013 3014 3015 3016 3016 3017 3018 3019 3020 3021 3022 3023 3024 3024 3025 3025 3026 3026 3026 3028 3030 3032 3035 3036 3038 3039 3040 3041 3043 3045 3047 3048 3050 3051 3053 3054 3055 3056 3058 3059 3060 3062 3064 3065 3067 3069 3071 3073 3075 3076 3078 3079 3081 3082 3084 3085 3087 3088 3089 3090 3091 3092 3093 3095 3097 3099 3100 3101 3102 3103 3104 3105 3106 3106 3107 3108 3109 3110
3002 3003 3003 3005 3006 3007 3008 3009 3010 3011 3011 3013 3013 3014 3015 3016 3017 3018 3019 3020 3021 3021 3021 3022 3022 3023 3024 3025 3026 3028 3031 3033 3035 3036 3038 3038 3040 3042 3044 3045 3046 3047 3049 3051 3052 3053 3055 3056 3058 3059 3061 3062 3064 3066 3067 3069 3071 3073 3074 3076 3077 3079 3081 3082 3084 3085 3086 3087 3088 3089 3090 3092 3094 3096 3097 3098 3099 3100 3101 3101 3102 3103 3104 3105 3106 3107
2999 2999 3000 3001 3002 3004 3005 3006 3007 3007 3008 3009 3010 3011 3011 3012 3014 3015 3016 3016 3017 3018 3019 3019 3020 3020 3021 3022 3024 3025 3028 3030 3031 3032 3034 3035 3036 3038 3041 3042 3042 3043 3045 3047 3049 3050 3051 3053 3055 3057 3058 3060 3061 3062 3064 3066 3067 3069 3071 3072 3074 3076 3077 3079 3081 3082 3084 3084 3085 3086 3087 3089 3091 3092 3094 3095 3096 3097 3098 3098 3099 3100 3101 3102 3103 3104
2996 2996 2997 2998 2999 3000 3002 3003 3003 3004 3005 3006 3006 3007 3008 3009 3010 3011 3012 3013 3014 3015 3016 3016 3017 3018 3019 3020 3021 3023 3025 3026 3028 3029 3029 3030 3032 3034 3037 3038 3039 3039 3041 3042 3045 3047 3048 3050 3051 3053 3055 3056 3058 3059 3061 3062 3064 3065 3067 3069 3071 3072 3074 3076 3078 3079 3081 3081 3082 3083 3084 3086 3088 3090 3091 3092 3093 3093 3094 3095 3096 3097 3099 3100 3101 3101
2993 2994 2994 2995 2996 2997 2998 2999 3000 3001 3002 3002 3003 3005 3005 3006 3007 3008 3009 3010 3011 3012 3013 3014 3014 3015 3016 3018 3019 3020 3021 3023 3025 3025 3026 3027 3029 3030 3032 3034 3035 3036 3037 3038 3041 3043 3045 3046 3048 3049 3051 3052 3054 3056 3057 3059 3060 3062 3064 3065 3067 3069 3071 3072 3074 3076 3077 3078 3079 3080 3081 3083 3085 3086 3088 3089 3089 3090 3091 3092 3093 3094 3096 3097 3098 3098
2991 2991 2991 2992 2993 2994 2995 2996 2996 2998 2998 2999 3000 3001 3002 3003 3004 3005 3006 3007 3008 3009 3009 3010 3011 3012 3014 3015 3016 3016 3018 3020 3021 3022 3023 3024 3025 3026 3028 3030 3031 3032 3033 3035 3037 3039 3041 3043 3044 3046 3047 3049 3050 3052 3053 3055 3057 3059 3061 3062 3064 3066 3067 3069 3071 3072 3074 3075 3076 3076 3078 3079 3081 3083 3084 3085 3086 3086 3087 3089 3090 3091 3092 3094 3095 3096
2987 2988 2989 2990 2990 2991 2991 2992 2994 2995 2995 2996 2997 2997 2998 2999 3001 3001 3002 3003 3004 3005 3006 3006 3008 3009 3011 3011 3012 3014 3016 3017 3018 3019 3020 3020 3021 3022 3024 3026 3028 3028 3029 3031 3034 3036 3038 3040 3041 3042 3044 3045 3047 3049 3050 3052 3054 3056 3057 3059 3061 3062 3064 3066 3067 3069 3070 3071 3072 3073 3074 3076 3077 3079 3081 3081 3082 3082 3083 3085 3086 3088 3089 3090 3091 3092
2984 2985 2986 2987 2987 2988 2989 2990 2991 2991 2991 2992 2993 2994 2995 2996 2997 2998 2999 3000 3001 3001 3002 3003 3004 3005 3006 3008 3009 3011 3012 3014 3016 3016 3017 3016 3017 3019 3021 3023 3024 3024 3025 3028 3030 3032 3034 3036 3038 3040 3041 3042 3044 3045 3047 3049 3051 3052 3054 3055 3057 3058 3060 3062 3063 3065 3066 3067 3068 3069 3070 3072 3074 3075 3077 3077 3078 3078 3079 3081 3082 3084 3085 3086 3088 3089
2981 2982 2983 2984 2984 2985 2986 2987 2987 2988 2988 2989 2990 2991 2992 2993 2994 2994 2996 2997 2998 2998 2999 3000 3001 3001 3002 3004 3005 3007 3009 3011 3012 3013 3013 3013 3014 3016 3017 3019 3020 3021 3022 3025 3027 3029 3030 3032 3035 3037 3039 3040 3041 3042 3044 3046 3047 3049 3050 3051 3053 3055 3056 3058 3059 3061 3062 3063 3064 3065 3066 3068 3070 3071 3072 3073 3074 3074 3075 3076 3078 3080 3081 3082 3083 3085
2978 2979 2980 2981 2981 2982 2983 2984 2984 2985 2985 2986 2986 2987 2988 2989 2990 2991 2992 2993 2994 2995 2996 2997 2997 2998 2999 3001 3002 3003 3005 3007 3009 3010 3010 3011 3011 3012 3013 3015 3017 3019 3020 3022 3023 3025 3026 3028 3030 3033 3035 3036 3038 3039 3040 3042 3043 3045 3046 3048 3049 3051 3052 3054 3056 3057 3058 3060 3061 3061 3062 3064 3065 3067 3068 3069 3070 3070 3071 3072 3074 3076 3077 3079 3080 3081
2975 2976 2977 2977 2978 2979 2980 2980 2981 2982 2982 2983 2983 2984 2985 2985 2986 2987 2989 2990 2991 2992 2993 2993 2994 2995 2996 2998 2999 3000 3001 3003 3005 3006 3007 3008 3009 3009 3010 3011 3013 3015 3017 3018 3020 3021 3023 3025 3026 3029 3031 3032 3034 3036 3036 3038 3039 3041 3042 3044 3045 3047 3049 3050 3052 3053 3055 3056 3058 3059 3060 3060 3061 3063 3064 3065 3066 3066 3067 3069 3070 3072 3074 3075 3076 3077
2972 2973 2973 2974 2975 2976 2976 2977 2978 2979 2979 2980 2980 2981 2981 2982 2983 2984 2985 2986 2987 2988 2990 2990 2991 2992 2993 2994 2995 2996 2997 2999 3001 3002 3004 3005 3006 3006 3006 3009 3010 3012 3013 3014 3016 3017 3020 3021 3022 3024 3026 3028 3029 3031 3033 3034 3036 3037 3038 3040 3041 3043 3044 3046 3048 3050 3052 3053 3055 3056 3057 3058 3059 3060 3061 3062 3063 3064 3065 3066 3067 3069 3070 3071 3072 3074
2969 2970 2971 2971 2972 2972 2973 2974 2975 2976 2976 2977 2977 2978 2978 2979 2980 2980 2981 2981 2984 2985 2986 2986 2987 2988 2990 2991 2992 2993 2994 2996 2997 2998 3000 3002 3001 3002 3003 3006 3007 3008 3009 3011 3012 3013 3015 3016 3017 3019 3021 3023 3025 3026 3028 3030 3032 3033 3034 3036 3037 3038 3040 3042 3044 3046 3048 3050 3052 3054 3055 3055 3056 3056 3057 3059 3061 3061 3062 3063 3064 3066 3067 3068 3069 3070
2966 2967 2968 2968 2969 2969 2970 2971 2971 2972 2973 2974 2974 2975 2975 2976 2976 2977 2977 2978 2980 2981 2982 2982 2983 2985 2986 2987 2988 2990 2991 2992 2994 2995 2997 2998 2998 2998 3000 3003 3004 3005 3006 3008 3009 3010 3010 3011 3013 3015 3017 3019 3021 3022 3024 3026 3028 3029 3030 3031 3033 3034 3036 3038 3040 3041 3043 3046 3048 3049 3050 3051 3051 3052 3054 3055 3057 3058 3059 3060 3061 3062 3063 3064 3065 3066
2964 2964 2965 2965 2966 2966 2967 2968 2968 2969 2970 2971 2971 2972 2972 2973 2973 2974 2974 2976 2977 2977 2977 2978 2980 2981 2983 2984 2985 2986 2987 2989 2991 2992 2993 2994 2994 2994 2997 2999 3000 3001 3002 3004 3005 3005 3006 3007 3009 3011 3013 3015 3017 3019 3020 3022 3023 3025 3026 3028 3029 3031 3032 3034 3036 3037 3039 3041 3042 3044 3045 3046 3047 3049 3050 3051 3052 3053 3054 3055 3057 3058 3059 3060 3061 3063
2961 2961 2962 2962 2963 2964 2964 2965 2965 2966 2967 2968 2968 2969 2970 2970 2971 2971 2972 2973 2973 2974 2974 2975 2977 2978 2979 2980 2981 2982 2983 2985 2987 2989 2990 2991 2990 2991 2994 2995 2996 2997 2999 3000 3001 3001 3002 3004 3006 3007 3010 3011 3013 3015 3016 3018 3020 3021 3023 3025 3026 3027 3029 3031 3032 3033 3035 3036 3038 3040 3041 3042 3044 3046 3047 3048 3048 3049 3050 3051 3052 3054 3055 3056 3058 3059
2958 2958 2959 2960 2960 2961 2961 2962 2962 2963 2964 2965 2966 2966 2967 2968 2968 2969 2969 2970 2970 2971 2971 2972 2973 2975 2976 2976 2977 2978 2980 2982 2984 2986 2986 2987 2987 2987 2989 2991 2992 2993 2995 2996 2997 2998 2999 3000 3002 3004 3006 3007 3009 3011 3012 3015 3016 3018 3021 3022 3024 3025 3026 3027 3029 3030 3031 3033 3034 3036 3037 3039 3041 3042 3044 3044 3044 3045 3046 3047 3049 3050 3051 3053 3054 3055
2955 2955 2956 2957 2957 2958 2959 2959 2960 2960 2961 2962 2963 2964 2965 2965 2966 2966 2967 2967 2968 2968 2969 2969 2970 2971 2972 2973 2974 2975 2977 2978 2980 2981 2982 2982 2983 2983 2985 2987 2988 2989 2991 2992 2993 2994 2995 2996 2998 3001 3002 3004 3005 3007 3009 3011 3013 3016 3018 3019 3021 3021 3023 3024 3025 3026 3027 3029 3030 3032 3034 3036 3037 3039 3040 3040 3041 3041 3042 3044 3045 3046 3048 3049 3050 3051
2952 2952 2953 2954 2955 2955 2956 2956 2957 2957 2958 2959 2960 2961 2962 2963 2963 2964 2964 2965 2965 2966 2966 2966 2967 2968 2969 2970 2971 2972 2973 2974 2975 2976 2977 2978 2978 2979 2981 2982 2984 2985 2986 2988 2989 2990 2991 2993 2995 2996 2998 3000 3001 3003 3005 3007 3009 3012 3014 3016 3016 3018 3019 3021 3022 3023 3024 3025 3026 3028 3030 3032 3033 3035 3036 3036 3037 3037 3039 3041 3042 3043 3045 3045 3046 3047
2949 2950 2951 2951 2952 2952 2953 2954 2954 2955 2956 2956 2957 2958 2959 2960 2961 2961 2962 2962 2963 2963 2964 2964 2965 2965 2966 2967 2968 2969 2970 2970 2971 2972 2974 2974 2974 2976 2977 2978 2979 2981 2982 2983 2985 2986 2988 2989 2990 2992 2994 2996 2997 2999 3001 3002 3005 3006 3009 3010 3011 3013 3015 3016 3018 3020 3021 3022 3023 3024 3026 3027 3029 3030 3031 3032 3033 3034 3036 3037 3039 3040 3041 3042 3043 3044
2946 2947 2948 2948 2949 2950 2950 2951 2951 2952 2952 2953 2954 2955 2956 2957 2958 2959 2959 2960 2960 2961 2961 2961 2962 2962 2963 2964 2965 2966 2966 2967 2968 2969 2970 2970 2971 2972 2973 2974 2975 2977 2978 2979 2981 2982 2984 2985 2986 2988 2990 2991 2993 2995 2997 2999 3001 3002 3003 3004 3006 3008 3010 3011 3013 3015 3016 3018 3019 3020 3022 3023 3024 3026 3028 3030 3031 3031 3032 3034 3035 3036 3038 3039 3040 3041
2943 2944 2945 2946 2946 2947 2947 2948 2949 2949 2950 2950 2951 2952 2953 2954 2955 2956 2956 2957 2957 2958 2958 2959 2959 2960 2961 2961 2962 2962 2963 2964 2965 2966 2966 2966 2967 2968 2970 2971 2972 2973 2975 2976 2977 2978 2980 2981 2982 2984 2986 2987 2989 2991 2994 2996 2997 2998 2998 3000 3002 3004 3005 3006 3008 3010 3012 3014 3015 3017 3018 3019 3021 3022 3024 3026 3027 3028 3028 3030 3031 3033 3034 3036 3036 3038
2940 2941 2942 2943 2943 2944 2945 2945 2946 2946 2947 2947 2948 2949 2950 2951 2952 2953 2954 2954 2955 2955 2956 2956 2957 2957 2958 2959 2959 2960 2961 2961 2962 2962 2963 2963 2964 2966 2966 2967 2969 2970 2971 2972 2973 2975 2976 2977 2978 2980 2981 2983 2986 2988 2990 2991 2992 2994 2995 2996 2998 3000 3001 3002 3003 3006 3007 3009 3011 3012 3014 3015 3016 3018 3020 3021 3022 3023 3024 3025 3026 3028 3030 3031 3033 3034
2937 2938 2939 2940 2941 2941 2941 2942 2942 2943 2944 2945 2945 2946 2947 2949 2950 2951 2951 2952 2952 2953 2953 2954 2954 2955 2956 2956 2957 2957 2958 2958 2959 2960 2960 2961 2962 2963 2964 2965 2965 2966 2967 2969 2970 2971 2972 2973 2974 2976 2978 2980 2981 2983 2985 2987 2988 2989 2991 2993 2994 2995 2996 2997 2999 3001 3002 3004 3006 3007 3009 3011 3012 3014 3015 3016 3018 3020 3020 3021 3023 3024 3026 3027 3028 3030
2934 2935 2936 2936 2937 2938 2939 2939 2940 2941 2941 2942 2943 2944 2945 2946 2947 2948 2949 2949 2950 2950 2951 2951 2952 2953 2953 2954 2954 2955 2956 2956 2956 2957 2958 2958 2959 2960 2961 2961 2962 2963 2964 2965 2966 2967 2968 2970 2971 2973 2974 2976 2977 2979 2981 2982 2984 2985 2987 2988 2989 2990 2991 2994 2996 2997 2998 3000 3001 3003 3005 3007 3009 3010 3011 3013 3015 3016 3017 3019 3020 3021 3022 3023 3025 3026
2931 2932 2933 2933 2934 2935 2936 2936 2937 2938 2938 2939 2940 2941 2941 2942 2944 2945 2946 2946 2947 2948 2948 2949 2950 2950 2951 2951 2952 2952 2953 2954 2954 2955 2955 2956 2956 2957 2957 2958 2959 2960 2961 2962 2962 2963 2965 2966 2967 2969 2970 2972 2973 2975 2977 2978 2979 2981 2983 2984 2985 2986 2989 2990 2991 2992 2994 2996 2997 2999 3001 3003 3005 3006 3008 3010 3011 3012 3014 3016 3017 3018 3019 3020 3021 3022
2928 2929 2930 2931 2931 2932 2932 2933 2934 2935 2935 2936 2937 2937 2938 2940 2941 2942 2943 2944 2944 2945 2946 2946 2947 2947 2948 2949 2950 2950 2951 2951 2952 2952 2953 2953 2953 2954 2955 2955 2956 2957 2957 2958 2959 2960 2961 2962 2964 2965 2966 2968 2970 2971 2972 2973 2975 2977 2978 2979 2981 2983 2985 2985 2986 2988 2990 2991 2993 2995 2997 2998 3000 3002 3004 3006 3007 3008 3010 3012 3014 3015 3016 3017 3018 3019
2925 2926 2926 2927 2928 2929 2930 2930 2931 2931 2932 2933 2934 2935 2936 2937 2938 2939 2940 2941 2942 2942 2943 2944 2945 2945 2946 2947 2947 2948 2949 2949 2950 2950 2951 2951 2951 2951 2952 2952 2953 2954 2955 2956 2956 2956 2957 2959 2960 2961 2962 2964 2966 2967 2968 2969 2971 2972 2974 2975 2977 2978 2980 2980 2982 2984 2986 2988 2989 2991 2992 2994 2996 2997 3000 3001 3003 3005 3006 3009 3011 3012 3013 3014 3014 3015
2922 2923 2924 2925 2925 2926 2926 2927 2928 2928 2929 2930 2931 2932 2933 2934 2935 2936 2937 2938 2939 2940 2941 2941 2942 2943 2944 2944 2945 2946 2947 2947 2948 2948 2948 2948 2949 2949 2950 2950 2951 2951 2952 2953 2953 2954 2955 2956 2956 2957 2958 2960 2962 2963 2964 2965 2967 2968 2970 2971 2973 2975 2976 2977 2979 2981 2982 2983 2985 2986 2988 2989 2991 2993 2995 2997 2999 3001 3003 3005 3007 3008 3009 3009 3010 3011
2919 2920 2921 2921 2922 2923 2923 2924 2925 2926 2926 2927 2928 2929 2930 2931 2932 2933 2934 2935 2936 2937 2938 2939 2940 2941 2941 2942 2943 2944 2945 2946 2946 2946 2946 2947 2947 2947 2947 2948 2948 2949 2950 2950 2951 2951 2952 2952 2953 2954 2955 2957 2958 2959 2960 2961 2963 2965 2966 2967 2969 2971 2972 2974 2975 2976 2978 2979 2981 2982 2984 2986 2988 2990 2991 2993 2995 2997 3000 3001 3002 3003 3004 3005 3006 3007
2916 2917 2918 2918 2919 2920 2920 2921 2922 2923 2923 2924 2925 2926 2927 2928 2929 2930 2931 2932 2933 2935 2935 2936 2937 2938 2939 2940 2941 2942 2943 2944 2944 2944 2945 2945 2945 2945 2946 2946 2946 2946 2947 2947 2948 2948 2949 2949 2950 2951 2952 2953 2954 2955 2956 2957 2959 2961 2962 2963 2965 2967 2968 2969 2971 2972 2974 2976 2977 2978 2980 2982 2984 2986 2988 2990 2992 2994 2995 2996 2997 2999 3000 3001 3003 3004
2913 2914 2915 2916 2916 2917 2917 2918 2919 2920 2921 2921 2922 2923 2924 2925 2926 2927 2928 2929 2930 2931 2933 2934 2935 2936 2936 2938 2939 2940 2941 2941 2942 2942 2943 2943 2943 2943 2944 2944 2944 2944 2945 2945 2945 2946 2946 2946 2947 2948 2949 2950 2950 2951 2952 2954 2956 2957 2958 2960 2961 2963 2965 2966 2967 2969 2971 2972 2973 2975 2976 2978 2980 2982 2984 2986 2988 2990 2991 2992 2993 2995 2997 2998 3000 3002
2910 2911 2911 2912 2913 2914 2915 2915 2916 2917 2917 2918 2919 2920 2921 2922 2923 2924 2925 2926 2927 2929 2930 2931 2932 2933 2934 2936 2937 2938 2939 2939 2940 2941 2941 2941 2941 2941 2941 2942 2942 2942 2942 2943 2943 2943 2943 2944 2944 2945 2946 2946 2947 2948 2949 2951 2952 2954 2955 2956 2958 2960 2961 2962 2963 2965 2967 2969 2970 2972 2974 2975 2977 2979 2981 2983 2985 2986 2987 2989 2991 2993 2994 2996 2998 3000
2907 2908 2908 2909 2910 2911 2912 2912 2913 2914 2915 2916 2916 2917 2918 2919 2921 2921 2922 2923 2925 2926 2927 2928 2929 2930 2931 2933 2934 2936 2937 2937 2938 2939 2939 2939 2939 2940 2940 2940 2940 2940 2941 2941 2941 2941 2941 2942 2942 2942 2943 2944 2945 2946 2946 2948 2949 2951 2952 2953 2955 2956 2957 2959 2961 2962 2964 2966 2967 2969 2971 2973 2975 2977 2979 2981 2982 2984 2986 2988 2990 2991 2993 2995 2996 2999
2903 2904 2906 2906 2907 2908 2909 2910 2910 2911 2912 2912 2913 2914 2916 2916 2918 2919 2920 2921 2922 2923 2924 2925 2926 2927 2929 2930 2932 2933 2934 2935 2936 2936 2937 2937 2937 2938 2938 2938 2938 2938 2939 2939 2939 2939 2939 2940 2940 2940 2941 2941 2942 2943 2944 2945 2946 2948 2949 2951 2952 2953 2955 2956 2958 2960 2961 2963 2965 2966 2968 2970 2972 2974 2976 2978 2980 2982 2984 2986 2988 2990 2992 2994 2996 2998